Walla Walla, WA

12:56 PM PDT on July 23, 2016 (GMT -0700)
Walla Walla Regional

Weather History for KALW - May, 2012

Change the Weather History Date:

Sunday, May 27, 2012

  Actual Average Record
Temperature  
Mean Temperature 64 °F 62 °F  
Max Temperature 75 °F 73 °F 94 °F (1983)
Min Temperature 54 °F 51 °F 39 °F (1955)
Degree Days  
Heating Degree Days 2 4  
Month to date heating degree days 192  
Since 1 July heating degree days 4933  
Cooling Degree Days 0 2  
Month to date cooling degree days 27  
Year to date cooling degree days 29  
Growing Degree Days 14 (Base 50)    
Moisture  
Dew Point 41 °F    
Average Humidity 48    
Maximum Humidity 72    
Minimum Humidity 26    
Precipitation  
Precipitation 0.00 in 0.07 in 0.74 in (2010)
Month to date precipitation 1.84  
Year to date precipitation 10.35  
Snow  
Snow 0.00 in 0.00 in 0.00 in (2002)
Month to date snowfall 0.0  
Year to date snowfall 6.0  
Since 1 July snowfall 11.7  
Snow Depth -    
Sea Level Pressure  
Sea Level Pressure 29.92 in    
Wind  
Wind Speed 12 mph (SSW)    
Max Wind Speed 21 mph    
Max Gust Speed 25 mph    
Visibility 10 miles    
Events      
T = Trace of Precipitation, MM = Missing Value Source: NWS Daily Summary

Daily Weather History Graph

Daily Weather History Graph

Search for Another Location

Airport or City:

Trip Planner

Search our weather history database for the weather conditions in past years. The results will help you decide how hot, cold, wet, or windy it might be!

Date:

Astronomy

May. 27, 2012 Rise Set
Actual Time 5:08 AM PDT 8:32 PM PDT
Civil Twilight 4:31 AM PDT 9:09 PM PDT
Nautical Twilight 3:43 AM PDT 9:58 PM PDT
Astronomical Twilight 2:41 AM PDT 11:01 PM PDT
Moon 11:31 AM PDT (5/27) 12:30 AM PDT (5/27)
Length of Visible Light 16h 38m
Length of Day
15h 24m
Waxing Crescent, 39% of the Moon is Illuminated
May 27
Waxing Crescent
May 28
First Quarter
Jun 4
Full
Jun 11
Last Quarter
Jun 19
New

Hourly Weather History & Observations

Time (PDT) Temp. Dew Point Humidity Pressure Visibility Wind Dir Wind Speed Gust Speed Precip Events Conditions
12:53 AM 54.0 °F 39.0 °F 57% 29.84 in 10.0 mi South 10.4 mph - N/A   Partly Cloudy
1:53 AM 54.0 °F 43.0 °F 66% 29.85 in 10.0 mi South 11.5 mph - N/A   Clear
2:53 AM 55.0 °F 44.1 °F 67% 29.87 in 10.0 mi South 11.5 mph - N/A   Clear
3:53 AM 54.0 °F 44.1 °F 69% 29.88 in 10.0 mi South 13.8 mph - N/A   Partly Cloudy
4:53 AM 54.0 °F 44.1 °F 69% 29.90 in 10.0 mi South 10.4 mph - N/A   Scattered Clouds
5:53 AM 54.0 °F 45.0 °F 72% 29.91 in 10.0 mi South 11.5 mph - N/A   Scattered Clouds
6:53 AM 55.0 °F 45.0 °F 69% 29.93 in 10.0 mi South 12.7 mph 21.9 mph N/A   Scattered Clouds
7:53 AM 55.9 °F 45.0 °F 67% 29.94 in 10.0 mi SSW 13.8 mph - N/A   Clear
8:53 AM 57.9 °F 45.0 °F 62% 29.94 in 10.0 mi SW 12.7 mph - N/A   Clear
9:53 AM 61.0 °F 45.0 °F 56% 29.93 in 10.0 mi SW 15.0 mph - N/A   Partly Cloudy
10:53 AM 64.0 °F 45.0 °F 50% 29.93 in 10.0 mi SSW 12.7 mph - N/A   Partly Cloudy
11:53 AM 66.9 °F 42.1 °F 40% 29.93 in 10.0 mi WSW 10.4 mph 21.9 mph N/A   Clear
12:53 PM 69.1 °F 41.0 °F 36% 29.92 in 10.0 mi SW 11.5 mph 23.0 mph N/A   Clear
1:53 PM 70.0 °F 39.9 °F 33% 29.91 in 10.0 mi SW 10.4 mph 19.6 mph N/A   Clear
2:53 PM 71.1 °F 41.0 °F 34% 29.90 in 10.0 mi WSW 11.5 mph 16.1 mph N/A   Partly Cloudy
3:53 PM 73.0 °F 41.0 °F 31% 29.89 in 10.0 mi WSW 9.2 mph - N/A   Clear
4:53 PM 73.9 °F 39.0 °F 28% 29.89 in 10.0 mi SW 16.1 mph 20.7 mph N/A   Clear
5:53 PM 73.9 °F 37.0 °F 26% 29.89 in 10.0 mi West 20.7 mph 25.3 mph N/A   Mostly Cloudy
6:53 PM 70.0 °F 36.0 °F 29% 29.90 in 10.0 mi WSW 15.0 mph - N/A   Partly Cloudy
7:53 PM 68.0 °F 34.0 °F 28% 29.92 in 10.0 mi SW 12.7 mph - N/A   Overcast
8:53 PM 66.0 °F 35.1 °F 32% 29.94 in 10.0 mi South 13.8 mph 23.0 mph N/A   Overcast
9:53 PM 63.0 °F 36.0 °F 37% 29.97 in 10.0 mi South 15.0 mph - N/A   Overcast
10:53 PM 61.0 °F 36.0 °F 39% 29.99 in 10.0 mi South 12.7 mph - N/A   Mostly Cloudy
11:53 PM 57.0 °F 37.9 °F 49% 30.00 in 10.0 mi SSW 6.9 mph - N/A   Mostly Cloudy